Simultaneous Nadir Overpasses (SNOs) Predictions

Prediction of SNOs between GOES-16 and NPP Satellite Orbit:

Table of predicted SNOs for the next 14.0 days since TLE Epoch: 12/17/2022
Index Date Time (GOES-16) GOES-16 Lat,Lon NPP Lat,Lon Distance(km) Time Diff (sec)
1 12/17/2022 06:30:38 -0.02, -75.19 0.27, -76.41 139.62 80
2 12/18/2022 06:14:35 -0.02, -75.19 -0.74, -71.88 377.00 80
3 12/19/2022 18:33:54 0.02, -75.21 -0.40, -77.20 226.57 80
4 12/20/2022 18:17:51 0.01, -75.21 0.61, -72.67 290.29 80
5 12/22/2022 06:39:40 -0.01, -75.21 0.59, -77.94 310.25 80
6 12/23/2022 06:18:16 -0.00, -75.22 -0.42, -73.41 206.47 80
7 12/24/2022 18:40:15 0.00, -75.23 -0.77, -78.72 397.10 80
8 12/25/2022 18:24:11 -0.00, -75.24 0.24, -74.19 119.96 80
9 12/27/2022 06:46:01 0.00, -75.25 0.95, -79.46 479.53 80
10 12/28/2022 06:24:37 0.00, -75.26 -0.06, -74.93 37.92 80
11 12/30/2022 18:27:52 0.00, -75.31 -0.10, -75.71 46.10 80
